User: anonymous   Login
Location: Unspecified
(0.0000°N, 0.0000°E)
Time: 17:44:48
(UTC+00:00)
Language:

SES 6 - Orbit

View from above orbital plane
View from above orbital plane
View from above satellite
View from above satellite

Ground track
Ground track

The orbit data is extracted from the following two-line orbital elements,

1 39172U 13026A   15085.39042655 -.00000290  00000-0  00000+0 0  9998
2 39172 000.0445 280.2133 0002252 089.6598 273.6644 01.00272053  6628
Epoch (UTC): 26 March 2015 09:22:12
Eccentricity: 0.0002252
inclination: 0.0445°
perigee height: 35776 km
apogee height: 35795 km
right ascension of ascending node: 280.2133°
argument of perigee: 89.6598°
revolutions per day: 1.00272053
mean anomaly at epoch: 273.6644°
orbit number at epoch: 662

The dashed part of the orbit path shows where the satellite is in the earth's shadow,  

DLR